Location: Castro Valley
(37.6940°N, 122.0850°W)
Time: 17:01:35
(UTC-07:00)

PANSAT - Visible Passes

Search period start: 28 May 2017 00:00
Search period end: 07 June 2017 00:00
Orbit: 477 x 484 km, 28.5° (Epoch: 27 May)

Date Brightness Start Highest point End Pass type
(mag) Time Alt. Az. Time Alt. Az. Time Alt. Az.
28 May 9.2 21:09:16 10° SW 21:11:51 18° S 21:13:45 13° SE visible
29 May 9.6 22:18:54 10° SW 22:20:10 16° SW 22:20:10 16° SW visible
30 May 9.1 21:49:23 10° SW 21:52:08 19° S 21:52:20 19° S visible
31 May 9.2 21:19:53 10° SW 21:22:38 19° S 21:24:25 14° SSE visible
02 Jun 9.9 22:01:55 10° SSW 22:02:37 11° SSW 22:02:37 11° SSW visible
03 Jun 9.9 21:32:27 10° SSW 21:33:17 11° SSW 21:34:07 10° S visible
04 Jun 10.0 21:02:59 10° SSW 21:03:45 10° SSW 21:04:32 10° S visible
